DAL2729 KEGE-KSLC

Flight info

Callsign DAL2729
Flight time 0h 50m
Altitude 26000
Route BEVVR1 SPRKT EKR PITTT2
Aircraft A321/M-SDE3FGHIRWY/LB1

Departure

Time 2026-05-05 16:17
Airport Eagle County Regional Airport (KEGE)

Arrival

Time 2026-05-05 17:08
Airport Salt Lake City International Airport (KSLC)
Time Latitude Longitude Altitude Speed Heading
2026-05-05 16:01 39.64057 -106.91539 6527 ft 0 kts 172°
2026-05-05 16:06 39.64058 -106.91539 6527 ft 0 kts 172°
2026-05-05 16:10 39.64070 -106.91541 6528 ft 4 kts 172°
2026-05-05 16:10 39.64097 -106.91546 6528 ft 4 kts 172°
2026-05-05 16:10 39.64124 -106.91551 6527 ft 4 kts 172°
2026-05-05 16:11 39.64147 -106.91555 6526 ft 1 kts 172°
2026-05-05 16:13 39.64120 -106.91495 6527 ft 10 kts 97°
2026-05-05 16:13 39.64128 -106.91407 6527 ft 13 kts 80°
2026-05-05 16:13 39.64159 -106.91263 6528 ft 16 kts 41°
2026-05-05 16:14 39.64245 -106.90902 6538 ft 24 kts 82°
2026-05-05 16:14 39.64285 -106.90520 6541 ft 19 kts 82°
2026-05-05 16:15 39.64328 -106.90148 6551 ft 19 kts 81°
2026-05-05 16:15 39.64370 -106.90014 6552 ft 6 kts
2026-05-05 16:16 39.64443 -106.90064 6551 ft 0 kts 259°
2026-05-05 16:16 39.64371 -106.90710 6540 ft 107 kts 262°
2026-05-05 16:17 39.64011 -106.93579 7034 ft 179 kts 253°
2026-05-05 16:17 39.63455 -106.95014 7844 ft 183 kts 225°
2026-05-05 16:18 39.61174 -106.96904 9104 ft 203 kts 213°
2026-05-05 16:18 39.59978 -106.97898 9854 ft 207 kts 211°
2026-05-05 16:18 39.58042 -107.00594 11129 ft 218 kts 262°
2026-05-05 16:19 39.58031 -107.02575 11771 ft 222 kts 271°
2026-05-05 16:19 39.58097 -107.04570 12392 ft 226 kts 271°
2026-05-05 16:19 39.59628 -107.08192 13412 ft 249 kts 314°
2026-05-05 16:20 39.62462 -107.11020 14302 ft 276 kts 341°
2026-05-05 16:20 39.66553 -107.10657 15209 ft 317 kts
2026-05-05 16:21 39.71121 -107.09728 16125 ft 346 kts 352°
2026-05-05 16:22 39.76715 -107.15398 17494 ft 368 kts 302°
2026-05-05 16:22 39.79629 -107.21093 18399 ft 387 kts 302°
2026-05-05 16:23 39.82677 -107.26986 19302 ft 402 kts 302°
2026-05-05 16:23 39.84262 -107.30031 19753 ft 409 kts 302°
2026-05-05 16:23 39.87505 -107.36257 20651 ft 421 kts 302°
2026-05-05 16:24 39.89157 -107.39435 21110 ft 426 kts 302°
2026-05-05 16:24 39.90826 -107.42650 21559 ft 431 kts 303°
2026-05-05 16:24 39.94222 -107.49211 22451 ft 442 kts 302°
2026-05-05 16:25 39.95880 -107.52586 22882 ft 442 kts 297°
2026-05-05 16:25 39.98112 -107.60030 23792 ft 443 kts 288°
2026-05-05 16:25 39.99127 -107.63823 24243 ft 443 kts 288°
2026-05-05 16:26 40.01161 -107.71414 25144 ft 443 kts 288°
2026-05-05 16:26 40.02840 -107.77726 25822 ft 445 kts 288°
2026-05-05 16:27 40.03859 -107.81571 25925 ft 453 kts 288°
2026-05-05 16:27 40.04897 -107.85494 25946 ft 462 kts 288°
2026-05-05 16:27 40.05949 -107.89486 25943 ft 467 kts 288°
2026-05-05 16:27 40.06739 -107.93592 25944 ft 467 kts 278°
2026-05-05 16:28 40.07006 -107.97821 25945 ft 468 kts 273°
2026-05-05 16:28 40.07195 -108.02067 25943 ft 469 kts 273°
2026-05-05 16:28 40.07383 -108.06315 25943 ft 469 kts 273°
2026-05-05 16:28 40.07572 -108.10557 25942 ft 469 kts 273°
2026-05-05 16:29 40.07764 -108.14803 25941 ft 469 kts 273°
2026-05-05 16:29 40.07955 -108.19058 25942 ft 468 kts 273°
2026-05-05 16:29 40.08143 -108.23300 25939 ft 468 kts 273°
2026-05-05 16:29 40.08330 -108.27543 25939 ft 468 kts 273°
2026-05-05 16:30 40.08516 -108.31792 25939 ft 469 kts 273°
2026-05-05 16:30 40.08699 -108.36043 25939 ft 469 kts 273°
2026-05-05 16:30 40.08880 -108.40293 25941 ft 469 kts 273°
2026-05-05 16:30 40.09058 -108.44549 25942 ft 468 kts 273°
2026-05-05 16:31 40.09230 -108.48739 25942 ft 468 kts 273°
2026-05-05 16:31 40.09405 -108.52982 25940 ft 468 kts 273°
2026-05-05 16:31 40.09581 -108.57218 25940 ft 467 kts 273°
2026-05-05 16:31 40.09756 -108.61463 25937 ft 467 kts 273°
2026-05-05 16:32 40.09929 -108.65702 25935 ft 467 kts 273°
2026-05-05 16:32 40.10099 -108.69938 25929 ft 467 kts 273°
2026-05-05 16:32 40.10268 -108.74180 25929 ft 467 kts 273°
2026-05-05 16:32 40.10436 -108.78423 25922 ft 467 kts 273°
2026-05-05 16:33 40.10602 -108.82661 25918 ft 468 kts 273°
2026-05-05 16:33 40.10765 -108.86905 25915 ft 468 kts 273°
2026-05-05 16:33 40.10925 -108.91150 25911 ft 468 kts 273°
2026-05-05 16:33 40.11083 -108.95400 25908 ft 468 kts 273°
2026-05-05 16:34 40.11240 -108.99648 25906 ft 469 kts 273°
2026-05-05 16:34 40.11396 -109.03846 25904 ft 469 kts 273°
2026-05-05 16:34 40.11551 -109.08103 25904 ft 469 kts 273°
2026-05-05 16:34 40.11706 -109.12361 25897 ft 469 kts 273°
2026-05-05 16:35 40.11860 -109.16620 25902 ft 469 kts 273°
2026-05-05 16:35 40.12013 -109.20889 25902 ft 470 kts 273°
2026-05-05 16:35 40.12165 -109.25159 25901 ft 471 kts 273°
2026-05-05 16:35 40.12318 -109.29440 25904 ft 472 kts 273°
2026-05-05 16:36 40.12469 -109.33725 25901 ft 473 kts 273°
2026-05-05 16:36 40.12618 -109.37950 25905 ft 473 kts 273°
2026-05-05 16:36 40.12764 -109.42253 25906 ft 474 kts 272°
2026-05-05 16:36 40.12907 -109.46550 25900 ft 474 kts 272°
2026-05-05 16:37 40.13047 -109.50865 25897 ft 475 kts 272°
2026-05-05 16:37 40.13186 -109.55178 25896 ft 476 kts 272°
2026-05-05 16:37 40.13322 -109.59443 25896 ft 476 kts 272°
2026-05-05 16:37 40.13460 -109.63770 25889 ft 477 kts 272°
2026-05-05 16:38 40.13596 -109.68102 25886 ft 477 kts 272°
2026-05-05 16:38 40.13731 -109.72432 25881 ft 477 kts 272°
2026-05-05 16:38 40.13865 -109.76767 25879 ft 478 kts 272°
2026-05-05 16:38 40.13999 -109.81112 25881 ft 478 kts 272°
2026-05-05 16:39 40.14131 -109.85456 25881 ft 479 kts 272°
2026-05-05 16:39 40.14261 -109.89801 25880 ft 479 kts 272°
2026-05-05 16:39 40.14389 -109.94181 25878 ft 480 kts 272°
2026-05-05 16:39 40.14514 -109.98543 25877 ft 480 kts 272°
2026-05-05 16:40 40.14635 -110.02856 25878 ft 481 kts 272°
2026-05-05 16:40 40.14756 -110.07222 25880 ft 481 kts 272°
2026-05-05 16:40 40.14878 -110.11596 25884 ft 481 kts 272°
2026-05-05 16:40 40.14965 -110.15966 25884 ft 481 kts 271°
2026-05-05 16:41 40.14977 -110.20342 25884 ft 481 kts 270°
2026-05-05 16:41 40.14930 -110.24711 25889 ft 481 kts 269°
2026-05-05 16:41 40.14855 -110.29085 25879 ft 482 kts 269°
2026-05-05 16:41 40.14774 -110.33467 25472 ft 482 kts 269°
2026-05-05 16:42 40.14703 -110.37852 25021 ft 483 kts 269°
2026-05-05 16:42 40.14649 -110.42254 24561 ft 485 kts 269°
2026-05-05 16:42 40.14607 -110.46669 24120 ft 486 kts 270°
2026-05-05 16:42 40.14569 -110.51092 23671 ft 488 kts 270°
2026-05-05 16:43 40.14531 -110.55518 23220 ft 485 kts 270°
2026-05-05 16:43 40.14491 -110.59916 22770 ft 482 kts 269°
2026-05-05 16:43 40.14446 -110.64283 22319 ft 478 kts 269°
2026-05-05 16:43 40.14395 -110.68612 21871 ft 475 kts 269°
2026-05-05 16:44 40.14341 -110.72913 21417 ft 471 kts 269°
2026-05-05 16:44 40.14286 -110.77171 20995 ft 468 kts 269°
2026-05-05 16:44 40.14231 -110.81418 20569 ft 465 kts 269°
2026-05-05 16:44 40.14175 -110.85636 20144 ft 463 kts 269°
2026-05-05 16:45 40.14118 -110.89777 19724 ft 461 kts 269°
2026-05-05 16:45 40.14060 -110.93955 19299 ft 458 kts 269°
2026-05-05 16:45 40.13998 -110.98107 18982 ft 455 kts 269°
2026-05-05 16:45 40.13936 -111.02238 18965 ft 456 kts 269°
2026-05-05 16:46 40.13876 -111.06387 18939 ft 456 kts 269°
2026-05-05 16:46 40.13814 -111.10529 18953 ft 456 kts 269°
2026-05-05 16:46 40.13752 -111.14676 18954 ft 455 kts 269°
2026-05-05 16:46 40.13692 -111.18802 18969 ft 454 kts 269°
2026-05-05 16:47 40.13621 -111.22928 18960 ft 452 kts 268°
2026-05-05 16:47 40.13539 -111.27038 18958 ft 451 kts 268°
2026-05-05 16:47 40.13454 -111.31143 18965 ft 452 kts 270°
2026-05-05 16:47 40.13391 -111.35257 18954 ft 453 kts 269°
2026-05-05 16:48 40.13331 -111.39374 18974 ft 454 kts 269°
2026-05-05 16:48 40.13267 -111.43506 18972 ft 455 kts 269°
2026-05-05 16:48 40.13196 -111.47584 18978 ft 455 kts 269°
2026-05-05 16:48 40.13147 -111.51720 18979 ft 456 kts 272°
2026-05-05 16:49 40.13623 -111.55802 18992 ft 455 kts 286°
2026-05-05 16:49 40.14797 -111.59629 18983 ft 455 kts 296°
2026-05-05 16:49 40.16178 -111.63347 18980 ft 455 kts 296°
2026-05-05 16:49 40.17561 -111.67068 18982 ft 455 kts 296°
2026-05-05 16:50 40.18935 -111.70771 18977 ft 455 kts 296°
2026-05-05 16:50 40.20317 -111.74504 18968 ft 456 kts 296°
2026-05-05 16:50 40.21696 -111.78240 18979 ft 456 kts 296°
2026-05-05 16:50 40.23073 -111.81979 18978 ft 456 kts 296°
2026-05-05 16:51 40.24446 -111.85721 18981 ft 456 kts 296°
2026-05-05 16:51 40.25818 -111.89461 18970 ft 456 kts 297°
2026-05-05 16:51 40.27515 -111.92948 18979 ft 454 kts 310°
2026-05-05 16:51 40.29815 -111.95768 18862 ft 454 kts 324°
2026-05-05 16:52 40.32498 -111.97939 18314 ft 453 kts 330°
2026-05-05 16:52 40.35228 -111.99995 17760 ft 451 kts 331°
2026-05-05 16:52 40.37954 -112.02019 17211 ft 448 kts 331°
2026-05-05 16:52 40.40682 -112.03960 16659 ft 444 kts 336°
2026-05-05 16:53 40.43604 -112.05146 16109 ft 439 kts 350°
2026-05-05 16:53 40.46588 -112.05597 15569 ft 436 kts 354°
2026-05-05 16:53 40.49575 -112.05993 15094 ft 427 kts 354°
2026-05-05 16:53 40.52529 -112.06382 14909 ft 427 kts 354°
2026-05-05 16:54 40.55480 -112.06775 14947 ft 427 kts 354°
2026-05-05 16:54 40.58430 -112.07167 14955 ft 426 kts 354°
2026-05-05 16:54 40.61386 -112.07561 14846 ft 425 kts 353°
2026-05-05 16:54 40.64290 -112.07947 14399 ft 412 kts 354°
2026-05-05 16:55 40.67128 -112.08306 13956 ft 410 kts 354°
2026-05-05 16:55 40.69975 -112.08645 13511 ft 411 kts 354°
2026-05-05 16:55 40.72831 -112.08960 13067 ft 412 kts 354°
2026-05-05 16:55 40.75693 -112.09270 12634 ft 413 kts 354°
2026-05-05 16:56 40.78545 -112.09604 12198 ft 409 kts 354°
2026-05-05 16:56 40.81339 -112.09933 11686 ft 399 kts 354°
2026-05-05 16:56 40.84079 -112.10253 11139 ft 391 kts 354°
2026-05-05 16:56 40.86715 -112.10567 10918 ft 375 kts 354°
2026-05-05 16:57 40.89238 -112.10872 10978 ft 353 kts 354°
2026-05-05 16:57 40.91622 -112.11158 10978 ft 334 kts 354°
2026-05-05 16:57 40.93880 -112.11431 10978 ft 318 kts 354°
2026-05-05 16:57 40.96021 -112.11693 10980 ft 301 kts 354°
2026-05-05 16:58 40.98085 -112.11943 10981 ft 296 kts 354°
2026-05-05 16:58 41.00137 -112.12192 10980 ft 296 kts 354°
2026-05-05 16:58 41.02177 -112.12439 10975 ft 288 kts 354°
2026-05-05 16:58 41.04119 -112.12673 10548 ft 274 kts 354°
2026-05-05 16:59 41.05981 -112.12898 10077 ft 263 kts 354°
2026-05-05 16:59 41.07795 -112.13122 9589 ft 260 kts 355°
2026-05-05 16:59 41.09565 -112.13344 9126 ft 258 kts 354°
2026-05-05 16:59 41.11343 -112.13569 8649 ft 256 kts 354°
2026-05-05 17:00 41.13118 -112.13759 8177 ft 257 kts
2026-05-05 17:00 41.14863 -112.13250 7701 ft 260 kts 27°
2026-05-05 17:00 41.16275 -112.11765 7224 ft 263 kts 53°
2026-05-05 17:00 41.17023 -112.09609 7003 ft 253 kts 80°
2026-05-05 17:01 41.17012 -112.07334 7002 ft 246 kts 104°
2026-05-05 17:01 41.16301 -112.05294 6998 ft 245 kts 129°
2026-05-05 17:01 41.15013 -112.03842 7003 ft 245 kts 154°
2026-05-05 17:01 41.13385 -112.03202 7014 ft 245 kts 171°
2026-05-05 17:02 41.11700 -112.02835 7008 ft 246 kts 171°
2026-05-05 17:02 41.10012 -112.02463 7000 ft 246 kts 171°
2026-05-05 17:02 41.08324 -112.02085 7008 ft 246 kts 170°
2026-05-05 17:02 41.06635 -112.01705 7009 ft 245 kts 171°
2026-05-05 17:03 41.04967 -112.01329 7001 ft 239 kts 170°
2026-05-05 17:03 41.03342 -112.00961 7010 ft 236 kts 170°
2026-05-05 17:03 41.01730 -112.00598 7011 ft 235 kts 170°
2026-05-05 17:03 41.00120 -112.00235 7002 ft 230 kts 171°
2026-05-05 17:04 40.98610 -111.99897 7002 ft 215 kts 171°
2026-05-05 17:04 40.97179 -111.99587 7025 ft 206 kts 172°
2026-05-05 17:04 40.95766 -111.99383 7010 ft 204 kts 175°
2026-05-05 17:04 40.94331 -111.99221 7013 ft 204 kts 175°
2026-05-05 17:05 40.92917 -111.99070 7020 ft 204 kts 175°
2026-05-05 17:05 40.91499 -111.98954 6700 ft 210 kts 176°
2026-05-05 17:05 40.90075 -111.98801 6414 ft 197 kts 175°
2026-05-05 17:05 40.88744 -111.98646 5905 ft 189 kts 175°
2026-05-05 17:06 40.87464 -111.98496 5642 ft 178 kts 173°
2026-05-05 17:06 40.86252 -111.98394 5394 ft 170 kts 174°
2026-05-05 17:06 40.85109 -111.98222 5077 ft 158 kts 172°
2026-05-05 17:06 40.84067 -111.98068 4831 ft 144 kts 174°
2026-05-05 17:07 40.83086 -111.97962 4671 ft 139 kts 176°
2026-05-05 17:07 40.82111 -111.97852 4500 ft 143 kts 175°
2026-05-05 17:07 40.81136 -111.97742 4328 ft 139 kts 174°
2026-05-05 17:07 40.80177 -111.97628 4241 ft 133 kts 175°
2026-05-05 17:08 40.79424 -111.97544 4229 ft 69 kts 175°
2026-05-05 17:08 40.79156 -111.97550 4230 ft 30 kts 206°
2026-05-05 17:08 40.79057 -111.97621 4232 ft 12 kts 209°
2026-05-05 17:08 40.78976 -111.97672 4232 ft 17 kts 199°
2026-05-05 17:09 40.78850 -111.97695 4231 ft 18 kts 178°
2026-05-05 17:09 40.78759 -111.97731 4231 ft 13 kts 242°
2026-05-05 17:09 40.78747 -111.97844 4231 ft 9 kts 264°
2026-05-05 17:09 40.78711 -111.97882 4231 ft 7 kts 186°
2026-05-05 17:10 40.78673 -111.97886 4231 ft 2 kts 184°
2026-05-05 17:10 40.78665 -111.97887 4231 ft 1 kts 184°
2026-05-05 17:10 40.78663 -111.97887 4231 ft 0 kts 184°